DW7403 Weather Reports


time (UTC)temp
F
wind
direction
speed
knots
gust
knots
rain 1hr
in
rain 24hr
in
rain mn
in
humidity
%
barometer
mb
20260506213734 55 313 1.7 7.0 0.00 0.96 0.19 56 1011.7
20260506210739 56 238 0.9 3.5 0.00 0.96 0.19 57 1011.6
20260506203730 56 40 2.6 7.0 0.00 0.96 0.19 56 1011.3
20260506200732 56 244 0.9 3.5 0.00 0.96 0.19 63 1011.1
20260506193750 56 325 2.6 5.2 0.00 0.96 0.19 58 1011.4
20260506190737 58 257 2.6 5.2 0.00 0.96 0.19 58 1010.9
20260506183759 58 246 2.6 7.0 0.00 0.96 0.19 58 1011.1
20260506180732 58 290 0.9 5.2 0.00 0.96 0.19 57 1011.2
20260506173721 59 28 0.9 3.5 0.00 0.96 0.19 62 1011.3
20260506170734 57 311 0.9 5.2 0.00 0.96 0.19 67 1011.2
20260506163728 56 285 0.9 5.2 0.00 0.96 0.19 66 1011.4
20260506160727 55 284 1.7 5.2 0.00 0.96 0.19 69 1011.2
20260506153742 53 334 1.7 5.2 0.00 0.96 0.19 72 1010.8
20260506150724 52 360 1.7 5.2 0.00 0.96 0.19 74 1010.4
20260506143732 51 298 1.7 6.1 0.00 0.96 0.19 76 1010.5
20260506140730 48 290 284.2 284.2 0.00 0.00 0.19 88 1009.8
20260506130733 46 221 1.7 3.5 0.00 0.96 0.19 97 1009.7
20260506003726 59 198 0.9 3.5 0.08 0.45 0.45 99 1006.3
20260506000728 59 209 0.0 2.6 0.10 0.42 0.42 99 1006.2
20260505233729 59 226 0.9 2.6 0.06 0.37 0.37 98 1006.3
20260505230732 60 213 0.9 2.6 0.04 0.32 0.32 98 1006.7
20260505223722 60 230 0.0 2.6 0.09 0.31 0.31 98 1006.8
20260505220726 60 206 0.9 4.3 0.25 0.28 0.28 96 1007.0